Find Starlink 5448

NORAD ID: 54770 Int'l Des: 2022-175 Owner: SPXS Country: US Constellation: starlink operational
LEOCIRCULAR

实时位置

正在加载3D地球...

关于 Starlink 5448

正在加载描述...

即将过境

Passes for default location (London). Set your location on the main map for personalized predictions.

高度历史

Loading altitude history...

两行轨道根数

1 54770U 22175N 26126.29664990 -.00000164 00000-0 77955-5 0 9992
2 54770 53.2164 130.6964 0001177 81.9907 278.1218 15.08836795188823
Epoch: May 6, 2026 • Age: 5 hours

当前状态

高度 552.4 km
速度 7.59 km/s
星下点 -37.48°S, 55.66°E
发射日期 Dec 17, 2022
运行时间 3.3 years
类型 internet

技术详情

分类 Payload
质量 305.00 kg
干质量 290.00 kg
总质量 305.00 kg
长度 0.20 m
直径 2.80 m
跨度 9.00 m
形状 Box + pan
制造商 SPXS
平台类型 Starlink
阶段状态 In Orbit
所有者/国家 SPXS/US

Most Searched